CW0962 Weather Reports


Display with metric or nautical units.
time (UTC)temp
F
wind
direction
speed
MPH
gust
MPH
rain 1hr
in
rain 24hr
in
rain mn
in
humidity
%
barometer
mb
20210619153502 82 102 5.0 11.0 0.00 0.00 0.00 63 1004.9
20210619153008 81 213 4.0 20.0 0.00 0.00 0.00 64 1005.0
20210619152505 81 207 4.0 20.0 0.00 0.00 0.00 63 1004.9
20210619152003 81 246 3.0 15.0 0.00 0.00 0.00 64 1005.0
20210619151502 80 199 5.0 15.0 0.00 0.00 0.00 64 1005.0
20210619151008 80 226 0.0 14.0 0.00 0.00 0.00 64 1005.1
20210619150505 80 191 3.0 12.0 0.00 0.00 0.00 65 1005.1
20210619150010 79 240 5.0 14.0 0.00 0.00 0.00 64 1005.1
20210619145503 79 194 11.0 14.0 0.00 0.00 0.00 65 1005.2
20210619145008 78 205 0.0 12.0 0.00 0.00 0.00 66 1005.3
20210619144506 78 67 2.0 13.0 0.00 0.00 0.00 66 1005.3
20210619144006 78 192 2.0 14.0 0.00 0.00 0.00 66 1005.4
20210619143501 77 198 1.0 14.0 0.00 0.00 0.00 66 1005.5
20210619143006 77 163 1.0 12.0 0.00 0.00 0.00 67 1005.6
20210619142502 77 307 4.0 14.0 0.00 0.00 0.00 66 1005.6
20210619142008 77 234 4.0 14.0 0.00 0.00 0.00 66 1005.6
20210619141505 78 192 7.0 14.0 0.00 0.00 0.00 65 1005.6
20210619141007 78 250 1.0 11.0 0.00 0.00 0.00 65 1005.6
20210619140502 78 191 2.0 13.0 0.00 0.00 0.00 65 1005.6
20210619140010 78 184 6.0 13.0 0.00 0.00 0.00 66 1005.6
20210619135506 78 176 6.0 13.0 0.00 0.00 0.00 66 1005.7
20210619135004 77 218 5.0 15.0 0.00 0.00 0.00 66 1005.5
20210619134500 77 147 6.0 13.0 0.00 0.00 0.00 66 1005.5
20210619134002 77 211 2.0 15.0 0.00 0.00 0.00 67 1005.7
20210619133503 76 257 1.0 18.0 0.00 0.00 0.00 67 1005.9
20210619133007 76 173 4.0 18.0 0.00 0.00 0.00 67 1006.0
20210619132500 76 178 3.0 13.0 0.00 0.00 0.00 69 1005.9
20210619132004 75 190 3.0 13.0 0.00 0.00 0.00 70 1005.7
20210619131505 74 161 4.0 13.0 0.00 0.00 0.00 70 1005.8
20210619131003 74 100 1.0 13.0 0.00 0.00 0.00 71 1005.8
20210619130502 73 227 8.0 11.0 0.00 0.00 0.00 72 1005.8
20210619130008 72 209 4.0 13.0 0.00 0.00 0.00 72 1005.8
20210619125501 72 237 3.0 18.0 0.00 0.00 0.00 71 1005.8
20210619125008 72 198 6.0 18.0 0.00 0.00 0.00 70 1005.8
20210619124502 73 98 5.0 18.0 0.00 0.00 0.00 70 1005.9
20210619124005 72 145 7.0 15.0 0.00 0.00 0.00 71 1006.0
20210619123504 72 199 7.0 21.0 0.00 0.00 0.00 70 1006.0
20210619123008 72 166 8.0 14.0 0.00 0.00 0.00 70 1005.9
20210619122504 72 246 1.0 15.0 0.00 0.00 0.00 70 1006.2
20210619122009 72 256 3.0 15.0 0.00 0.00 0.00 70 1006.2
20210619121503 72 290 2.0 14.0 0.00 0.00 0.00 69 1006.1
20210619121006 72 256 5.0 25.0 0.00 0.00 0.00 70 1006.3
20210619120503 71 200 7.0 25.0 0.00 0.00 0.00 71 1006.4
20210619120011 71 207 3.0 16.0 0.00 0.00 0.00 71 1006.4
20210619115500 70 221 5.0 16.0 0.00 0.00 0.00 71 1006.3
20210619115010 70 208 7.0 15.0 0.00 0.00 0.00 72 1006.4
20210619114505 69 155 4.0 20.0 0.00 0.00 0.00 72 1006.4
20210619114002 69 180 5.0 20.0 0.00 0.00 0.00 73 1006.4
20210619113502 69 319 7.0 20.0 0.00 0.00 0.00 73 1006.4
20210619113006 68 234 7.0 13.0 0.00 0.00 0.00 73 1006.4
20210619112501 68 219 5.0 15.0 0.00 0.00 0.00 73 1006.5
20210619112009 68 149 2.0 16.0 0.00 0.00 0.00 73 1006.3
20210619111506 67 182 10.0 19.0 0.00 0.00 0.00 73 1006.2
20210619111003 67 178 6.0 19.0 0.00 0.00 0.00 73 1006.4
20210619110500 67 222 7.0 15.0 0.00 0.00 0.00 74 1006.4
20210619110006 67 161 7.0 13.0 0.00 0.00 0.00 73 1006.3
20210619105500 67 190 12.0 13.0 0.00 0.00 0.00 73 1006.3
20210619105006 66 209 5.0 12.0 0.00 0.00 0.00 73 1006.4
20210619104503 66 151 2.0 13.0 0.00 0.00 0.00 73 1006.2
20210619104004 66 221 8.0 15.0 0.00 0.00 0.00 73 1006.4
20210619103500 66 209 8.0 15.0 0.00 0.00 0.00 73 1006.4
20210619103008 66 209 7.0 13.0 0.00 0.00 0.00 73 1006.7
20210619102501 66 206 5.0 12.0 0.00 0.00 0.00 73 1006.6
20210619102006 66 156 5.0 19.0 0.00 0.00 0.00 73 1006.6
20210619101505 66 155 6.0 15.0 0.00 0.00 0.00 72 1006.6
20210619101001 66 221 8.0 13.0 0.00 0.00 0.00 72 1006.8
20210619100502 66 227 3.0 13.0 0.00 0.00 0.00 72 1006.8
20210619100010 66 223 1.0 14.0 0.00 0.00 0.00 72 1006.9
20210619095502 66 133 4.0 14.0 0.00 0.00 0.00 72 1007.0
20210619095005 66 129 5.0 15.0 0.00 0.00 0.00 72 1007.0
20210619094504 66 201 4.0 15.0 0.00 0.00 0.00 72 1007.1
20210619094002 66 189 8.0 14.0 0.00 0.00 0.00 72 1007.3
20210619093504 66 213 11.0 14.0 0.00 0.00 0.00 72 1007.3
20210619093006 66 116 5.0 13.0 0.00 0.00 0.00 72 1007.2
20210619092503 66 225 6.0 15.0 0.00 0.00 0.00 72 1007.3
20210619092006 66 194 2.0 15.0 0.00 0.00 0.00 72 1007.2
20210619091501 66 63 0.0 16.0 0.00 0.00 0.00 71 1007.2
20210619091005 66 167 3.0 16.0 0.00 0.00 0.00 71 1007.3
20210619090504 66 179 2.0 15.0 0.00 0.00 0.00 71 1007.3
20210619090007 66 164 6.0 15.0 0.00 0.00 0.00 70 1007.4
20210619085504 66 156 3.0 13.0 0.00 0.00 0.00 70 1007.3
20210619085006 66 153 4.0 23.0 0.00 0.00 0.00 70 1007.4
20210619084508 66 149 5.0 23.0 0.00 0.00 0.00 71 1007.6
20210619084005 66 219 11.0 13.0 0.00 0.00 0.00 71 1007.6
20210619083504 66 190 4.0 13.0 0.00 0.00 0.00 71 1007.8
20210619083007 66 248 5.0 19.0 0.00 0.00 0.00 71 1007.8
20210619082504 66 167 5.0 19.0 0.00 0.00 0.00 72 1007.7
20210619082006 66 287 7.0 14.0 0.00 0.00 0.00 72 1007.7
20210619081505 66 63 4.0 16.0 0.00 0.00 0.00 72 1008.0
20210619081007 66 219 9.0 16.0 0.00 0.00 0.00 72 1007.9
20210619080501 66 308 4.0 13.0 0.00 0.00 0.00 72 1007.8
20210619080007 66 217 5.0 13.0 0.00 0.00 0.00 72 1008.0
20210619075501 66 174 4.0 12.0 0.00 0.00 0.00 73 1007.9
20210619075004 66 200 5.0 12.0 0.00 0.00 0.00 73 1007.9
20210619074504 66 107 5.0 11.0 0.00 0.00 0.00 73 1007.9
20210619074005 65 182 6.0 12.0 0.00 0.00 0.00 73 1008.0
20210619073502 65 151 2.0 12.0 0.00 0.00 0.00 74 1008.1
20210619073006 65 201 8.0 12.0 0.00 0.00 0.00 74 1008.2
20210619072501 65 98 3.0 12.0 0.00 0.00 0.00 74 1008.3
20210619072002 65 189 12.0 12.0 0.00 0.00 0.00 75 1008.5
20210619071502 65 177 5.0 10.0 0.00 0.00 0.00 75 1008.4
20210619071002 65 198 4.0 11.0 0.00 0.00 0.00 75 1008.6
20210619070504 65 168 2.0 11.0 0.00 0.00 0.00 75 1008.5
20210619070007 65 163 4.0 11.0 0.00 0.00 0.00 75 1008.6
20210619065504 65 207 6.0 11.0 0.00 0.00 0.00 75 1008.7
20210619065006 65 136 2.0 10.0 0.00 0.00 0.00 74 1008.8
20210619064504 65 221 6.0 11.0 0.00 0.00 0.00 74 1008.9
20210619064007 66 231 1.0 12.0 0.00 0.00 0.00 73 1008.9
20210619063504 66 211 7.0 12.0 0.00 0.00 0.00 72 1008.8
20210619063004 66 219 7.0 9.0 0.00 0.00 0.00 72 1009.1
20210619062503 66 166 6.0 10.0 0.00 0.00 0.00 71 1009.1
20210619062003 66 219 2.0 10.0 0.00 0.00 0.00 70 1009.3
20210619061502 67 196 10.0 10.0 0.00 0.00 0.00 70 1009.2
20210619061006 67 182 2.0 11.0 0.00 0.00 0.00 69 1009.1
20210619060500 67 221 4.0 11.0 0.00 0.00 0.00 69 1009.2
20210619060008 67 182 5.0 11.0 0.00 0.00 0.00 68 1009.2
20210619055504 67 234 5.0 10.0 0.00 0.00 0.00 68 1009.2
20210619055005 67 269 5.0 12.0 0.00 0.00 0.00 68 1009.2
20210619054505 67 223 6.0 12.0 0.00 0.00 0.00 68 1009.2
20210619054005 67 159 1.0 9.0 0.00 0.00 0.00 68 1009.2
20210619053501 67 230 9.0 12.0 0.00 0.00 0.00 67 1009.2
20210619053005 67 200 9.0 15.0 0.00 0.00 0.00 67 1009.3
20210619052502 67 150 3.0 15.0 0.00 0.00 0.00 67 1009.2
20210619052003 67 215 1.0 11.0 0.00 0.00 0.00 67 1009.2
20210619051505 67 178 4.0 14.0 0.00 0.00 0.00 67 1009.1
20210619051004 67 202 2.0 14.0 0.00 0.00 0.00 67 1009.0
20210619050501 67 90 6.0 12.0 0.00 0.00 0.00 67 1009.0
20210619050005 67 213 2.0 12.0 0.00 0.00 0.00 67 1009.0
20210619045505 67 210 4.0 14.0 0.00 0.00 0.00 66 1009.0
20210619045006 67 153 2.0 14.0 0.00 0.00 0.00 66 1009.1
20210619044506 67 215 6.0 15.0 0.00 0.00 0.00 66 1009.2
20210619044005 67 318 4.0 16.0 0.00 0.00 0.00 66 1009.1
20210619043503 68 225 1.0 16.0 0.00 0.00 0.00 66 1009.3
20210619043005 68 215 10.0 16.0 0.00 0.00 0.00 65 1009.3
20210619042501 68 260 9.0 11.0 0.00 0.00 0.00 65 1009.3
20210619042005 68 143 5.0 12.0 0.00 0.00 0.00 65 1009.3
20210619041506 68 203 5.0 12.0 0.00 0.00 0.00 65 1009.3
20210619041004 68 160 1.0 11.0 0.00 0.00 0.00 64 1009.3
20210619040501 68 184 11.0 13.0 0.00 0.00 0.00 64 1009.4
20210619040012 68 167 11.0 13.0 0.00 0.00 0.00 63 1009.6
20210619035503 68 178 2.0 11.0 0.00 0.00 0.00 63 1009.6
20210619035005 68 224 7.0 12.0 0.00 0.00 0.00 62 1009.6
20210619034504 68 182 2.0 14.0 0.00 0.00 0.00 62 1009.7
20210619034007 68 185 6.0 14.0 0.00 0.00 0.00 61 1009.6
20210619033509 68 227 2.0 13.0 0.00 0.00 0.00 61 1009.8
20210619033005 68 171 7.0 13.0 0.00 0.00 0.00 61 1010.0
20210619032504 68 205 4.0 13.0 0.00 0.00 0.00 61 1010.0
20210619032005 68 253 1.0 14.0 0.00 0.00 0.00 60 1010.0
20210619031506 68 113 4.0 14.0 0.00 0.00 0.00 60 1010.0
20210619031006 68 171 8.0 12.0 0.00 0.00 0.00 60 1010.0
20210619030504 68 225 6.0 11.0 0.00 0.00 0.00 60 1010.1
20210619030007 68 192 2.0 15.0 0.00 0.00 0.00 60 1010.1
20210619025505 68 185 11.0 15.0 0.00 0.00 0.00 59 1010.2
20210619025007 68 268 8.0 11.0 0.00 0.00 0.00 59 1010.3
20210619024505 68 198 8.0 11.0 0.00 0.00 0.00 59 1010.2
20210619024009 68 193 2.0 13.0 0.00 0.00 0.00 58 1010.2
20210619023504 68 205 5.0 13.0 0.00 0.00 0.00 58 1010.3
20210619023010 68 211 5.0 12.0 0.00 0.00 0.00 58 1010.2
20210619022503 68 193 2.0 11.0 0.00 0.00 0.00 57 1010.1
20210619022007 68 220 2.0 12.0 0.00 0.00 0.00 57 1010.2
20210619021506 68 171 1.0 12.0 0.00 0.00 0.00 57 1010.3
20210619021007 68 192 4.0 15.0 0.00 0.00 0.00 57 1010.3
20210619020504 68 240 5.0 15.0 0.00 0.00 0.00 56 1010.2
20210619020010 68 219 8.0 10.0 0.00 0.00 0.00 56 1010.0
20210619015505 68 216 5.0 10.0 0.00 0.00 0.00 57 1010.0
20210619015009 69 246 6.0 12.0 0.00 0.00 0.00 57 1010.1
20210619014506 69 195 4.0 12.0 0.00 0.00 0.00 57 1010.3
20210619014005 69 94 4.0 11.0 0.00 0.00 0.00 57 1010.3
20210619013505 69 124 2.0 9.0 0.00 0.00 0.00 57 1010.2
20210619013008 69 217 6.0 10.0 0.00 0.00 0.00 56 1010.2
20210619012502 69 216 7.0 10.0 0.00 0.00 0.00 57 1010.2
20210619012007 69 218 3.0 9.0 0.00 0.00 0.00 56 1010.2
20210619011502 69 178 3.0 9.0 0.00 0.00 0.00 56 1010.2
20210619011010 69 190 1.0 9.0 0.00 0.00 0.00 55 1010.3
20210619010506 69 313 3.0 11.0 0.00 0.00 0.00 55 1010.2
20210619010006 69 194 1.0 15.0 0.00 0.00 0.00 54 1010.3
20210619005505 70 279 3.0 15.0 0.00 0.00 0.00 55 1010.2
20210619005007 70 185 4.0 12.0 0.00 0.00 0.00 54 1010.2
20210619004504 70 168 1.0 12.0 0.00 0.00 0.00 53 1010.1
20210619004008 70 137 5.0 11.0 0.00 0.00 0.00 54 1010.1
20210619003502 70 196 2.0 11.0 0.00 0.00 0.00 53 1010.1
20210619003007 70 165 2.0 11.0 0.00 0.00 0.00 53 1010.0
20210619002506 70 202 4.0 11.0 0.00 0.00 0.00 52 1010.0
20210619002006 70 191 9.0 10.0 0.00 0.00 0.00 53 1010.2
20210619001502 71 202 1.0 10.0 0.00 0.00 0.00 53 1010.2
20210619001004 71 156 3.0 10.0 0.00 0.00 0.00 53 1010.3
20210619000504 71 213 5.0 11.0 0.00 0.00 0.00 52 1010.4
20210619000008 71 262 3.0 11.0 0.00 0.00 0.00 52 1010.3
20210618235503 72 198 3.0 9.0 0.00 0.00 0.00 51 1010.3
20210618235006 72 167 1.0 9.0 0.00 0.00 0.00 51 1010.3
20210618234504 72 170 4.0 10.0 0.00 0.00 0.00 51 1010.3
20210618234006 72 209 1.0 10.0 0.00 0.00 0.00 50 1010.3
20210618233504 72 192 4.0 9.0 0.00 0.00 0.00 50 1010.3
20210618233005 73 210 5.0 10.0 0.00 0.00 0.00 49 1010.3
20210618232504 73 185 4.0 10.0 0.00 0.00 0.00 48 1010.3
20210618232004 73 173 1.0 11.0 0.00 0.00 0.00 48 1010.3
20210618231504 73 186 1.0 12.0 0.00 0.00 0.00 47 1010.4
20210618231007 74 213 2.0 14.0 0.00 0.00 0.00 47 1010.4
20210618230509 74 199 9.0 14.0 0.00 0.00 0.00 46 1010.4
20210618230006 74 196 14.0 14.0 0.00 0.00 0.00 45 1010.5
20210618225504 74 156 5.0 9.0 0.00 0.00 0.00 46 1010.5
20210618225005 75 174 0.0 13.0 0.00 0.00 0.00 46 1010.6
20210618224502 75 109 5.0 13.0 0.00 0.00 0.00 46 1010.6
20210618224006 75 202 5.0 12.0 0.00 0.00 0.00 45 1010.6
20210618223505 75 179 5.0 12.0 0.00 0.00 0.00 45 1010.6
20210618223007 75 194 4.0 12.0 0.00 0.00 0.00 46 1010.6
20210618222504 76 207 1.0 13.0 0.00 0.00 0.00 46 1010.6
20210618222006 76 199 4.0 14.0 0.00 0.00 0.00 44 1010.6
20210618221504 76 224 7.0 15.0 0.00 0.00 0.00 44 1010.8
20210618221006 76 222 4.0 16.0 0.00 0.00 0.00 45 1010.9
20210618220504 76 221 6.0 16.0 0.00 0.00 0.00 44 1010.9
20210618220009 76 196 1.0 16.0 0.00 0.00 0.00 43 1010.8
20210618215502 77 132 1.0 12.0 0.00 0.00 0.00 46 1010.7
20210618215004 77 194 1.0 14.0 0.00 0.00 0.00 44 1010.7
20210618214503 77 171 4.0 14.0 0.00 0.00 0.00 42 1010.8
20210618214008 77 188 6.0 13.0 0.00 0.00 0.00 44 1010.9
20210618213505 77 207 6.0 14.0 0.00 0.00 0.00 44 1010.9
20210618213032 78 344 1.0 14.0 0.00 0.00 0.00 44 1010.9
20210618212503 78 241 2.0 19.0 0.00 0.00 0.00 42 1011.0
20210618212011 78 151 1.0 19.0 0.00 0.00 0.00 42 1011.0
20210618211507 78 258 2.0 16.0 0.00 0.00 0.00 44 1011.1
20210618211007 78 202 2.0 16.0 0.00 0.00 0.00 45 1011.1
20210618210503 78 218 2.0 19.0 0.00 0.00 0.00 42 1011.1
20210618210008 78 88 6.0 19.0 0.00 0.00 0.00 43 1011.1
20210618205502 79 175 4.0 16.0 0.00 0.00 0.00 44 1011.1
20210618205006 79 271 4.0 16.0 0.00 0.00 0.00 43 1011.1
20210618204506 79 178 2.0 11.0 0.00 0.00 0.00 44 1011.1
20210618204009 79 167 5.0 14.0 0.00 0.00 0.00 46 1011.1
20210618203504 79 199 5.0 14.0 0.00 0.00 0.00 42 1011.2
20210618203007 79 246 5.0 13.0 0.00 0.00 0.00 40 1011.2
20210618202504 79 219 4.0 13.0 0.00 0.00 0.00 40 1011.2
20210618202007 79 232 2.0 18.0 0.00 0.00 0.00 39 1011.3
20210618201503 79 217 1.0 18.0 0.00 0.00 0.00 42 1011.3
20210618201008 79 183 8.0 18.0 0.00 0.00 0.00 40 1011.3
20210618200503 79 292 7.0 13.0 0.00 0.00 0.00 43 1011.4
20210618200006 79 260 1.0 14.0 0.00 0.00 0.00 43 1011.5
20210618195505 79 185 4.0 14.0 0.00 0.00 0.00 41 1011.6
20210618195008 80 237 11.0 14.0 0.00 0.00 0.00 41 1011.7
20210618194506 80 186 5.0 11.0 0.00 0.00 0.00 39 1011.7
20210618194007 80 128 1.0 14.0 0.00 0.00 0.00 41 1011.7
20210618193502 80 137 8.0 14.0 0.00 0.00 0.00 40 1011.9
20210618193008 80 310 4.0 13.0 0.00 0.00 0.00 41 1011.9
20210618192502 80 171 3.0 15.0 0.00 0.00 0.00 42 1011.9
20210618192007 80 182 0.0 15.0 0.00 0.00 0.00 40 1012.0
20210618191504 80 161 2.0 15.0 0.00 0.00 0.00 41 1012.1
20210618191008 80 215 7.0 14.0 0.00 0.00 0.00 43 1012.1
20210618190504 80 166 6.0 14.0 0.00 0.00 0.00 41 1012.1
20210618190009 80 175 2.0 14.0 0.00 0.00 0.00 41 1012.2
20210618185505 80 202 7.0 14.0 0.00 0.00 0.00 42 1012.2
20210618185008 80 172 5.0 14.0 0.00 0.00 0.00 42 1012.2
20210618184507 80 189 5.0 12.0 0.00 0.00 0.00 43 1012.4
20210618184010 80 163 7.0 16.0 0.00 0.00 0.00 40 1012.4
20210618183504 80 58 2.0 16.0 0.00 0.00 0.00 39 1012.3
20210618183006 81 204 2.0 16.0 0.00 0.00 0.00 38 1012.4
20210618182504 81 230 10.0 16.0 0.00 0.00 0.00 37 1012.4
20210618182005 81 190 6.0 12.0 0.00 0.00 0.00 38 1012.4
20210618181505 81 258 6.0 14.0 0.00 0.00 0.00 39 1012.3
20210618181005 81 194 0.0 14.0 0.00 0.00 0.00 38 1012.4
20210618180505 81 93 1.0 12.0 0.00 0.00 0.00 38 1012.4
20210618180006 81 110 3.0 15.0 0.00 0.00 0.00 40 1012.3
20210618175505 81 80 6.0 15.0 0.00 0.00 0.00 37 1012.2
20210618175005 81 187 5.0 10.0 0.00 0.00 0.00 38 1012.3
20210618174503 81 188 5.0 9.0 0.00 0.00 0.00 38 1012.4
20210618174005 81 169 5.0 9.0 0.00 0.00 0.00 34 1012.5
20210618173505 81 194 5.0 11.0 0.00 0.00 0.00 33 1012.6
20210618173005 81 97 2.0 11.0 0.00 0.00 0.00 31 1012.7
20210618172506 81 244 4.0 10.0 0.00 0.00 0.00 33 1012.7
20210618172006 81 40 1.0 10.0 0.00 0.00 0.00 31 1012.7
20210618171504 81 242 4.0 10.0 0.00 0.00 0.00 32 1012.8
20210618171004 81 287 2.0 9.0 0.00 0.00 0.00 32 1012.7
20210618170506 82 205 0.0 9.0 0.00 0.00 0.00 30 1012.7
20210618170008 82 306 2.0 10.0 0.00 0.00 0.00 31 1012.8
20210618165508 82 290 0.0 16.0 0.00 0.00 0.00 33 1013.0
20210618165007 82 348 2.0 16.0 0.00 0.00 0.00 29 1013.0
20210618164508 83 147 6.0 16.0 0.00 0.00 0.00 30 1013.1
20210618164004 83 232 5.0 8.0 0.00 0.00 0.00 31 1013.1
20210618163505 83 293 1.0 8.0 0.00 0.00 0.00 31 1013.2
20210618163009 84 224 2.0 10.0 0.00 0.00 0.00 30 1013.3
20210618162504 84 292 0.0 10.0 0.00 0.00 0.00 30 1013.3
20210618162006 83 293 5.0 9.0 0.00 0.00 0.00 35 1013.2
20210618161502 83 242 3.0 9.0 0.00 0.00 0.00 31 1013.2
20210618161006 84 242 2.0 10.0 0.00 0.00 0.00 29 1013.2
20210618160504 84 18 1.0 10.0 0.00 0.00 0.00 30 1013.3
20210618160007 83 299 6.0 8.0 0.00 0.00 0.00 31 1013.5
20210618155500 83 360 1.0 8.0 0.00 0.00 0.00 32 1013.6
20210618155005 83 298 2.0 9.0 0.00 0.00 0.00 31 1013.6
20210618154503 83 219 2.0 11.0 0.00 0.00 0.00 32 1013.7
20210618154004 83 258 1.0 11.0 0.00 0.00 0.00 31 1013.7